[Iaude] MPEC C125: 2024 CQ2 [a=1.16,e=0.36,i=7.9,H=27.5]

mpec at cfa.harvard.edu mpec at cfa.harvard.edu
Mon Feb 12 04:38:08 EST 2024


M.P.E.C. 2024-C125                            Issued 2024 February 12, 09:36 UT

     The Minor Planet Electronic Circulars contain information on unusual
         minor planets, routine data on comets and natural satellites,
         and occasional editorial announcements.  They are published
    on behalf of Division F of the International Astronomical Union by the
          Minor Planet Center, Smithsonian Astrophysical Observatory,
                          Cambridge, MA 02138, U.S.A.
			  
             Prepared using the Tamkin Foundation Computer Network

                              MPC at CFA.HARVARD.EDU
            URL https://www.minorplanetcenter.net/    ISSN 1523-6714

                                    2024 CQ2                                    


Observations:
     K24C02Q* C2024 02 10.36329610 45 43.455+24 01 10.44         20.06wXEC125F52
     K24C02Q  C2024 02 10.37691410 45 29.684+24 04 40.52         20.20wXEC125F52
     K24C02Q  C2024 02 10.39056910 45 15.794+24 08 09.05         20.15wXEC125F52
     K24C02Q  C2024 02 10.40419810 45 01.928+24 11 34.29         19.67GVEC125F52
     K24C02Q  C2024 02 10.53220410 42 52.862+24 41 32.94         20.06GVEC125F52
     K24C02Q  C2024 02 10.53302310 42 52.009+24 41 44.43         20.09GVEC125F52
     K24C02Q |C2024 02 11.21528010 35 10.210+26 52 49.40         20.3 GVEC125807
     K24C02Q |C2024 02 11.21976010 35 06.930+26 53 31.30         20.3 GVEC125807
     K24C02Q |C2024 02 11.22431010 35 03.610+26 54 13.40         20.3 GVEC125807
     K24C02Q |C2024 02 11.22864010 35 00.450+26 54 53.90         20.6 GVEC125807
     K24C02Q KC2024 02 12.13340 10 27 19.08 +28 42 14.0          21.0 GVEC125204
     K24C02Q KC2024 02 12.16157 10 27 05.66 +28 44 54.6                VEC125204

Observer details:
204 Schiaparelli Observatory.  Observer L. Buzzi.  0.84-m f/3.5 reflector +
    CMO.
807 Cerro Tololo Observatory, La Serena.  Observers T. Linder, R. Holmes.
    0.61-m f/11 Ritchey-Chretien + CCD.
F52 Pan-STARRS 2, Haleakala.  Observers J. Herman, T. Lowe, P. Minguez, A.
    Schultz, I. Smith.  Measurers K. Chambers, T. de Boer, J. Fairlamb, H.
    Gao, M. Huber, C.-C. Lin, E. Magnier, Y. Ramanjooloo, R. Wainscoat, R.
    Weryk.  1.8-m Ritchey-Chretien + CCD.

Orbital elements:
2024 CQ2                                                 Earth MOID = 0.0019 AU
Epoch 2023 Sept. 13.0 TT = JDT 2460200.5                MPC                     
M 290.59090              (2000.0)            P               Q                  
n   0.78929365     Peri.  272.99073     +0.61110121     -0.78631330             
a   1.1596056      Node   138.88215     +0.77002337     +0.56393801             
e   0.3573352      Incl.    7.94720     +0.18335574     +0.25235949             
P   1.25           H   27.59          G   0.15           U   7                  
Residuals in seconds of arc
240210 F52  0.3-  0.1+    240210 F52  0.3+  0.2-    240211 807  0.0   0.3-
240210 F52  0.0   0.2-    240210 F52  0.4-  0.5+    240211 807  0.1-  0.1-
240210 F52  0.1-  0.1-    240211 807  0.1+  0.2+    240212 204  0.1-  0.3+
240210 F52  0.2+  0.2-    240211 807  0.0   0.1+    240212 204  0.1+  0.1-

Ephemeris:
2024 CQ2                 a,e,i = 1.16, 0.36, 8                   q = 0.7452
Date    TT    R. A. (2000) Decl.     Delta      r    Elong.  Phase     V
2024 01 13    21 34 59.0 -36 39 38   0.1678  0.8425    30.0   144.2    30.8
...
2024 01 28    21 29 45.3 -40 19 12   0.06531 0.9257    24.5   153.8    30.7
...
2024 02 05    19 58 12.6 -50 58 17   0.01537 0.9737    37.7   141.8    25.6
...
2024 02 11    10 37 20.4 +26 12 49   0.02478 1.0103   161.2    18.3    20.5
2024 02 12    10 28 26.1 +28 29 49   0.03097 1.0164   161.6    17.9    21.0
2024 02 13    10 22 15.7 +29 59 08   0.03722 1.0225   161.4    18.0    21.4
...
2024 02 19    10 06 01.6 +33 22 09   0.07565 1.0590   158.3    20.2    23.1
...
2024 02 27    09 59 46.4 +34 04 40   0.1290  1.1068   153.3    23.7    24.5
...
2024 03 13    09 59 44.0 +32 51 31   0.2378  1.1925   143.0    30.1    26.2

A. U. Tomatic                (C) Copyright 2024 MPC           M.P.E.C. 2024-C125





More information about the Iaude mailing list